Location: Juzet
(42.9779°N, 0.7597°E)
Time: 08:36:37
(UTC+00:00)

COBE Rocket - Pass Details

Date: 14 July 2020
Orbit: 679 x 783 km, 97.1° (Epoch: 04 August)

Event Time Altitude Azimuth Distance (km) Brightness Sun altitude
Exits shadow 02:23:53 17° 164° (SSE) 1,854 5.6 -17.7°
Maximum altitude 02:27:50 84° 77° (ENE) 753 3.9 -17.3°
Drops below altitude 10° 02:32:46 10° 350° (N) 2,232 7.0 -16.8°
Sets 02:35:01 0° 350° (N) 3,141 7.8 -16.5°
